Le nostre stazioni meteo in Italia

Pubblicità
Il mio iltempo24.it
Ponza, Italia (16280): Temperatura & dewpoint: 10.07.2018 20:00:00 - 16.07.2018 20:00:00 (CEST)Ponza, Italia (16280): velocità del vento: 10.07.2018 20:00:00 - 16.07.2018 20:00:00 (CEST)Ponza, Italia (16280): direzione del vento: 10.07.2018 20:00:00 - 16.07.2018 20:00:00 (CEST)Ponza, Italia (16280): reduced air pressure: 10.07.2018 20:00:00 - 16.07.2018 20:00:00 (CEST)Ponza, Italia (16280): visibility: 10.07.2018 20:00:00 - 16.07.2018 20:00:00 (CEST)Ponza, Italia (16280): ore di luce: 10.07.2018 20:00:00 - 16.07.2018 20:00:00 (CEST)
Data & Tempo tt [°C] td [°C] ff [km/h] ff [kn] dd ppp [hPa] vv [km] sd [min]
16.07.2018 20:00:00 26,0 24,4 15 8 SE 1011,1 9 0
16.07.2018 19:00:00 26,0 24,4 16 9 ESE 1011,1 9 0
16.07.2018 18:00:00 25,0 23,8 21 11 SE 1012,0 10 0
16.07.2018 17:00:00 25,0 24,1 15 8 SSE 1014,7 10 0
16.07.2018 16:00:00 27,8 26,0 4 2 NNO 1014,8 10 0
16.07.2018 15:00:00 27,6 26,4 16 9 N 1014,8 10 0
16.07.2018 14:00:00 28,0 26,6 8 4 O 1015,6 10 0
16.07.2018 13:00:00 28,8 25,6 4 2 SSE 1014,9 10 0
16.07.2018 12:00:00 29,0 26,2 11 6 E 1014,0 10 0
16.07.2018 11:00:00 28,0 25,8 11 6 E 1012,6 10 0
16.07.2018 10:00:00 27,0 24,8 8 4 NNE 1013,8 10 60
16.07.2018 09:00:00 26,0 24,2 4 2 N 1014,6 10 60
16.07.2018 08:00:00 25,0 24,1 9 5 O 1013,5 10 48
16.07.2018 07:00:00 24,6 23,9 8 4 OSO 1012,5 10 0
16.07.2018 06:00:00 24,4 23,9 8 4 O 1012,5 10 -
16.07.2018 05:00:00 - - - - - - - -
16.07.2018 04:00:00 - - - - - - - -
16.07.2018 03:00:00 23,6 23,1 11 6 O 1012,6 10 -
16.07.2018 02:00:00 23,4 22,9 5 3 O 1012,6 10 -
16.07.2018 01:00:00 23,8 23,3 11 6 ONO 1012,6 10 -
16.07.2018 00:00:00 23,8 23,5 11 6 ONO 1012,5 10 -
15.07.2018 23:00:00 24,2 23,7 13 7 ONO 1012,2 10 -
15.07.2018 22:00:00 24,8 24,3 11 6 O 1012,3 10 -
15.07.2018 21:00:00 24,8 24,5 15 8 OSO 1012,2 10 0
15.07.2018 20:00:00 26,0 25,5 15 8 OSO 1012,1 10 60
15.07.2018 19:00:00 27,4 25,6 15 8 OSO 1012,0 10 60
15.07.2018 18:00:00 28,6 26,2 13 7 O 1012,1 10 60
15.07.2018 17:00:00 28,6 26,6 13 7 ONO 1012,3 10 60
15.07.2018 16:00:00 29,0 27,2 9 5 ONO 1012,6 10 60
15.07.2018 15:00:00 29,2 27,8 9 5 ONO 1012,3 10 60
15.07.2018 14:00:00 29,0 27,2 11 6 ONO 1012,5 10 60
15.07.2018 13:00:00 29,8 27,4 11 6 NO 1012,8 10 60
15.07.2018 12:00:00 29,4 25,6 9 5 NO 1012,6 10 60
15.07.2018 11:00:00 28,0 25,2 5 3 O 1012,7 10 60
15.07.2018 10:00:00 27,2 24,7 8 4 ONO 1012,6 10 60
15.07.2018 09:00:00 27,2 25,4 5 3 ONO 1012,7 10 60
15.07.2018 08:00:00 26,0 24,8 4 2 O 1011,9 9 42
15.07.2018 07:00:00 25,0 24,0 5 3 SO 1011,8 9 0
15.07.2018 06:00:00 25,0 23,8 9 5 SSO 1011,8 10 -
15.07.2018 05:00:00 25,2 24,2 9 5 SSO 1012,1 10 -
15.07.2018 04:00:00 25,2 21,5 11 6 SSE 1012,2 10 -
15.07.2018 03:00:00 26,6 18,7 4 2 N 1012,7 10 -
15.07.2018 02:00:00 26,4 18,0 4 2 N 1013,1 15 -
15.07.2018 01:00:00 25,6 24,6 5 3 N 1013,0 10 -
15.07.2018 00:00:00 25,8 24,8 5 3 N 1013,3 10 -
14.07.2018 23:00:00 26,0 25,0 11 6 N 1013,2 10 -
14.07.2018 22:00:00 26,0 25,5 13 7 N 1013,1 8 -
14.07.2018 21:00:00 26,4 25,2 9 5 NO 1013,1 8 -
14.07.2018 20:00:00 28,2 26,4 11 6 O 1012,9 9 6
14.07.2018 19:00:00 28,6 26,4 8 4 SSO 1013,2 9 60
14.07.2018 18:00:00 30,6 28,0 4 2 NO 1013,6 10 60
14.07.2018 17:00:00 31,0 26,0 4 2 ESE 1013,8 4,0 60
14.07.2018 16:00:00 30,4 25,9 4 2 ENE 1014,6 9 60
14.07.2018 15:00:00 29,4 26,6 5 3 S 1014,9 9 60
14.07.2018 14:00:00 30,0 26,4 5 3 SSE 1015,3 9 60
14.07.2018 13:00:00 29,0 27,9 9 5 E 1015,3 8 60
14.07.2018 12:00:00 28,2 26,4 8 4 E 1015,9 8 60
14.07.2018 11:00:00 28,0 27,1 8 4 E 1016,0 8 60
14.07.2018 10:00:00 - - - - - - - -
14.07.2018 09:00:00 27,4 25,4 5 3 NE 1015,9 10 60
14.07.2018 08:00:00 25,4 23,5 4 2 NNE 1015,6 10 36
14.07.2018 07:00:00 - - - - - - - -
14.07.2018 06:00:00 24,2 23,7 9 5 N 1015,3 20 -
14.07.2018 05:00:00 24,8 24,0 8 4 NNO 1015,2 20 -
14.07.2018 04:00:00 24,8 23,6 8 4 NO 1015,5 40 -
14.07.2018 03:00:00 - - - - - - - -
14.07.2018 02:00:00 24,6 24,4 8 4 ONO 1016,3 30 -
14.07.2018 01:00:00 24,8 24,6 11 6 ONO 1016,2 30 -
14.07.2018 00:00:00 24,8 24,6 9 5 NO 1016,2 30 -
13.07.2018 23:00:00 25,0 24,8 13 7 NNO 1015,6 30 -
13.07.2018 22:00:00 25,2 24,3 11 6 NNO 1015,6 30 -
13.07.2018 21:00:00 25,4 25,2 8 4 NO 1015,5 10 0
13.07.2018 20:00:00 - - - - - - - -
13.07.2018 19:00:00 28,4 27,2 11 6 O 1015,4 15 60
13.07.2018 18:00:00 28,6 27,0 15 8 OSO 1015,4 10 60
13.07.2018 17:00:00 28,6 27,0 15 8 OSO 1015,7 10 60
13.07.2018 16:00:00 28,8 26,8 13 7 OSO 1015,9 10 60
13.07.2018 15:00:00 - - - - - - - -
13.07.2018 14:00:00 30,4 27,4 4 2 S 1016,5 10 60
13.07.2018 13:00:00 29,8 26,8 5 3 ENE 1016,7 10 60
13.07.2018 12:00:00 29,8 27,0 8 4 ENE 1016,7 15 60
13.07.2018 11:00:00 28,0 26,0 8 4 E 1016,4 10 60
13.07.2018 10:00:00 27,6 25,8 8 4 O 1016,5 10 60
13.07.2018 09:00:00 25,4 24,5 4 2 ENE 1016,3 6 60
13.07.2018 08:00:00 25,2 24,3 0 0 N 1016,1 6 60
13.07.2018 07:00:00 24,2 23,3 0 0 N 1015,7 7 60
13.07.2018 06:00:00 24,0 23,8 0 0 N 1015,3 10 -
13.07.2018 05:00:00 23,8 23,6 0 0 N 1015,3 10 -
13.07.2018 04:00:00 24,0 23,8 0 0 N 1015,5 15 -
13.07.2018 03:00:00 - - - - - - - -
13.07.2018 02:00:00 24,6 22,9 0 0 N 1015,9 15 -
13.07.2018 01:00:00 24,8 24,6 0 0 N 1015,4 15 -
13.07.2018 00:00:00 24,8 24,5 0 0 N 1015,6 20 -
12.07.2018 23:00:00 24,8 24,6 5 3 NNO 1015,4 20 -
12.07.2018 22:00:00 25,0 24,7 8 4 NNO 1015,2 20 -
12.07.2018 21:00:00 25,0 24,7 5 3 ONO 1015,1 15 -
12.07.2018 20:00:00 26,6 25,9 5 3 ONO 1014,9 15 60
12.07.2018 19:00:00 28,0 27,0 8 4 O 1014,6 15 60
12.07.2018 18:00:00 28,6 27,0 8 4 NE 1014,7 10 60
12.07.2018 17:00:00 28,8 26,8 9 5 OSO 1014,8 10 60
12.07.2018 16:00:00 28,4 26,6 13 7 SE 1015,0 10 60
12.07.2018 15:00:00 29,0 23,9 5 3 ONO 1015,0 10 60
12.07.2018 14:00:00 28,2 26,2 8 4 ONO 1015,2 10 60
12.07.2018 13:00:00 27,6 25,6 9 5 E 1015,8 20 60
12.07.2018 12:00:00 26,8 25,4 5 3 E 1015,0 20 60
12.07.2018 11:00:00 27,4 25,6 11 6 E 1014,7 10 48
12.07.2018 10:00:00 27,0 24,8 11 6 E 1014,4 10 60
12.07.2018 09:00:00 26,6 24,6 9 5 E 1014,1 20 60
12.07.2018 08:00:00 25,4 23,8 0 0 N 1014,2 30 60
12.07.2018 07:00:00 23,6 23,1 0 0 N 1014,3 30 6
12.07.2018 06:00:00 23,6 23,3 0 0 N 1014,3 30 -
12.07.2018 05:00:00 23,8 23,3 5 3 S 1014,2 30 -
12.07.2018 04:00:00 23,8 23,1 8 4 SSO 1014,1 30 -
12.07.2018 03:00:00 24,2 23,9 9 5 SSO 1014,1 30 -
12.07.2018 02:00:00 24,2 23,9 13 7 SSO 1014,0 30 -
12.07.2018 01:00:00 23,8 23,5 13 7 SSO 1013,9 30 -
12.07.2018 00:00:00 24,2 23,9 9 5 S 1013,9 30 -
11.07.2018 23:00:00 - - - - - - - -
11.07.2018 22:00:00 25,0 24,5 9 5 SO 1013,5 30 -
11.07.2018 21:00:00 25,2 24,5 8 4 SSO 1013,2 30 -
11.07.2018 20:00:00 26,4 24,8 8 4 S 1012,9 30 42
11.07.2018 19:00:00 27,0 25,0 5 3 S 1012,3 30 60
11.07.2018 18:00:00 28,6 26,0 8 4 OSO 1013,0 30 60
11.07.2018 17:00:00 28,8 26,4 11 6 OSO 1012,9 30 60
11.07.2018 16:00:00 28,2 25,4 13 7 OSO 1012,9 30 60
11.07.2018 15:00:00 27,8 24,9 11 6 SO 1012,9 30 60
11.07.2018 14:00:00 27,4 25,0 15 8 S 1012,9 30 54
11.07.2018 13:00:00 27,4 25,2 13 7 SSO 1012,9 30 54
11.07.2018 12:00:00 26,4 24,2 13 7 ESE 1013,0 30 60
11.07.2018 11:00:00 26,2 24,4 9 5 NE 1012,9 20 42
11.07.2018 10:00:00 25,6 23,8 8 4 O 1012,9 30 36
11.07.2018 09:00:00 25,0 23,4 8 4 S 1012,6 30 42
11.07.2018 08:00:00 24,4 22,8 5 3 S 1012,5 30 60
11.07.2018 07:00:00 23,4 23,1 8 4 S 1012,2 30 18
11.07.2018 06:00:00 23,4 23,1 8 4 S 1012,2 30 -
11.07.2018 05:00:00 23,8 22,8 5 3 SSO 1012,1 30 -
11.07.2018 04:00:00 24,0 23,2 5 3 SSO 1012,4 30 -
11.07.2018 03:00:00 24,0 23,5 9 5 SO 1013,0 30 -
11.07.2018 02:00:00 24,0 23,5 9 5 SO 1013,0 30 -
11.07.2018 01:00:00 24,0 23,5 5 3 S 1013,0 30 -
11.07.2018 00:00:00 24,0 23,5 5 3 S 1013,1 30 -
10.07.2018 23:00:00 24,6 24,1 5 3 SSE 1013,2 20 -
10.07.2018 22:00:00 24,8 24,3 8 4 SO 1013,2 30 -
10.07.2018 21:00:00 25,6 24,9 4 2 SO 1012,5 30 -
10.07.2018 20:00:00 26,2 25,2 9 5 OSO 1012,3 30 18

tt = Temperatura
td = dewpoint
ff = velocità del vento
dd = direzione del vento
ppp = reduced air pressure
vv = visibility
sd = ore di luce

Stazioni seguenti

WeatherPro
AMSI
MeteoEarth